Terug naar catalogus

STARLINK-32862

ActiefCommunicatieVLEO
NORAD 62864·PAYLOAD·🇺🇸 United States

Gelanceerd Feb 1, 2025 vanaf Vandenberg Space Force Base

Loading…

Volgende Passages (komende 24 uur)

TLE

VersSource: CelesTrak SupGP

Epoch: Sep 14, 2026, 22:22 UTC

1 62864C 25022L   26257.93243056  .00008519  00000+0  25177-3 0  2575
2 62864  53.1596 327.6355 0001305  84.6154 357.0335 15.34377111    15

Volg STARLINK-32862 in realtime met AllMySat

Download on the App Store